[[{"header":{"parameterUnit":"m.s-1","parameterCategory":1,"la1":30.2991,"la2":30.254,"lo1":-89.0895,"lo2":-89.0444,"dy":0.0017,"dx":0.0017,"nx":28,"ny":28,"refTime":"2024-03-28T21:00:00:Z","depth":0,"parameterNumber":2,"parameterNumberName":"U-component_of_WINDS"},"data":[0,0,0,0,0,0,0,0,0,0,0,0,0,0,0,0,0,0,0,0,0,0,0,0,0,0,0,0,0,0,0,0,0,0,0,0,0,0,0,0,0,0,0,0,0,0,0,0,0,0,0,0,0,0,0,0,0,0,-1.2831,-1.2831,0,-1.2865,-1.2866,-1.2866,-1.2865,-1.2865,-1.2865,-1.2864,-1.2901,-1.2902,-1.2904,0,0,0,0,0,0,0,0,0,0,0,0,0,-1.2767,-1.2768,-1.2831,-1.2831,-1.2831,-1.2865,-1.2866,-1.2866,-1.2866,-1.2865,-1.2864,-1.2864,-1.2901,-1.2902,-1.2904,0,0,0,0,0,0,0,0,0,0,0,0,0,-1.2797,-1.2768,-1.2831,-1.2835,-1.2836,-1.2865,-1.2866,-1.2866,-1.2866,-1.2865,-1.2864,-1.2864,-1.29,-1.2902,-1.2904,-1.2931,0,0,-1.2911,-1.2912,0,0,0,0,0,0,0,0,-1.2795,-1.28,-1.2834,-1.2835,-1.2836,-1.286,-1.2857,-1.2888,-1.2866,-1.2854,-1.2864,-1.2863,-1.2888,-1.2891,-1.2899,-1.2933,-1.2935,-1.2911,-1.2912,-1.2913,-1.2914,0,0,0,0,0,0,0,-1.2793,-1.2798,-1.2844,-1.2835,-1.2836,-1.2836,-1.284,-1.2863,-1.2875,-1.2855,-1.2855,-1.2859,-1.2889,-1.2897,-1.29,-1.2935,-1.2911,-1.2913,-1.2914,-1.2915,-1.2994,-1.2995,0,0,0,0,0,0,-1.279,-1.2796,-1.2843,-1.2845,-1.2813,-1.2838,-1.2842,-1.2853,-1.2875,-1.2877,-1.286,-1.2859,-1.2894,-1.2898,-1.2901,-1.2935,-1.2913,-1.2915,-1.2916,-1.2993,-1.2994,-1.2995,0,0,0,0,0,0,-1.2789,-1.2794,-1.2842,-1.2821,-1.2827,-1.284,-1.2852,-1.2854,-1.2863,-1.2878,-1.288,-1.2866,-1.2894,-1.2898,-1.2924,-1.2936,-1.2916,-1.2918,-1.2992,-1.2993,-1.2994,-1.3002,0,0,0,0,0,0,-1.2787,-1.2794,-1.2803,-1.2821,-1.2828,-1.2863,-1.2853,-1.2855,-1.2866,-1.2866,-1.2885,-1.2887,-1.2893,-1.2921,-1.2926,-1.2939,-1.292,-1.2991,-1.2993,-1.2994,-1.3001,-1.3003,-1.3006,0,0,0,0,0,-1.2784,-1.2804,-1.2804,-1.281,-1.2841,-1.2864,-1.2868,-1.2874,-1.2867,-1.2878,-1.2888,-1.2887,-1.2934,-1.2923,-1.2929,-1.2943,-1.299,-1.2992,-1.2994,-1.3,-1.3003,-1.3006,0,0,0,0,0,0,-1.2789,-1.2807,-1.2806,-1.2833,-1.2847,-1.2864,-1.2877,-1.2877,-1.2894,-1.2893,-1.29,-1.2904,-1.293,-1.2939,-1.2927,-1.2971,-1.2961,-1.2965,-1.2964,-1.2967,-1.2969,-1.2967,-1.2921,0,0,0,0,0,-1.2792,-1.2809,-1.2824,-1.2846,-1.2853,-1.2864,-1.2874,-1.2878,-1.2893,-1.2899,-1.2911,-1.2926,-1.2944,-1.2956,-1.2974,-1.3002,-1.3007,-1.3015,-1.3017,-1.3019,-1.3022,-1.3038,-1.3042,-1.3001,-1.3001,-1.3001,0,0,-1.2801,-1.2813,-1.2823,-1.2847,-1.2858,-1.2876,-1.2869,-1.2888,-1.2901,-1.2902,-1.2927,-1.2936,-1.2953,-1.2981,-1.2993,-1.2989,-1.3034,-1.3021,-1.3023,-1.3024,-1.304,-1.3044,-1.3047,-1.3002,-1.3002,-1.3002,0,0,-1.2825,-1.2835,-1.2855,-1.2866,-1.2883,-1.289,-1.2895,-1.2912,-1.2918,-1.2943,-1.2944,-1.2961,-1.2992,-1.3004,-1.3015,-1.3045,-1.3045,-1.305,-1.3063,-1.3079,-1.3082,-1.3085,-1.3096,-1.31,-1.3053,-1.3053,-1.3053,0,-1.2833,-1.2859,-1.2865,-1.2884,-1.2895,-1.2896,-1.2916,-1.2927,-1.2949,-1.2957,-1.2952,-1.2992,-1.3004,-1.3034,-1.3042,-1.305,-1.3056,-1.3048,-1.3081,-1.3084,-1.3087,-1.3097,-1.3102,-1.3054,-1.3054,-1.3053,-1.3053,0,-1.2869,-1.2887,-1.2901,-1.2922,-1.2934,-1.2954,-1.2963,-1.2976,-1.2978,-1.2986,-1.3012,-1.3026,-1.3047,-1.3055,-1.3058,-1.3086,-1.3083,-1.3079,-1.307,-1.3091,-1.3101,-1.3105,-1.3054,-1.3054,-1.3054,-1.3054,0,0,-1.2897,-1.292,-1.2925,-1.2935,-1.2954,-1.2969,-1.2989,-1.3009,-1.3019,-1.3035,-1.3052,-1.3079,-1.3076,-1.3088,-1.3093,-1.3106,-1.313,-1.3101,-1.3102,-1.3106,-1.3162,-1.3165,-1.3169,-1.313,-1.3131,-1.3131,-1.3161,0,-1.2923,-1.2958,-1.2964,-1.2994,-1.3012,-1.3013,-1.3031,-1.3045,-1.3053,-1.307,-1.3079,-1.3098,-1.3092,-1.31,-1.3113,-1.3124,-1.3141,-1.3122,-1.3147,-1.3148,-1.3142,-1.3175,-1.3177,-1.3204,-1.3165,-1.3165,-1.3166,0,-1.2959,-1.2974,-1.3007,-1.3024,-1.3031,-1.3047,-1.3066,-1.3081,-1.3098,-1.3103,-1.3116,-1.3119,-1.3141,-1.3131,-1.3161,-1.3148,-1.3159,-1.3166,-1.3167,-1.317,-1.3158,-1.3178,-1.3213,-1.3217,-1.3172,-1.3172,-1.3171,0,-1.2976,-1.3005,-1.3029,-1.3037,-1.3057,-1.3068,-1.3077,-1.3093,-1.3105,-1.3122,-1.313,-1.3149,-1.316,-1.3175,-1.3184,-1.3175,-1.3214,-1.3204,-1.3219,-1.3219,-1.3227,-1.3226,-1.3264,-1.3234,-1.3234,-1.3234,-1.3233,0,-1.3005,-1.3025,-1.3037,-1.3051,-1.3074,-1.3081,-1.3103,-1.3112,-1.3126,-1.3143,-1.3145,-1.3161,-1.3171,-1.3189,-1.3196,-1.322,-1.3225,-1.323,-1.3232,-1.323,-1.323,-1.3237,-1.3236,-1.3235,-1.3234,-1.3234,-1.3234,0,-1.3028,-1.3037,-1.3062,-1.3079,-1.3084,-1.31,-1.3115,-1.313,-1.3138,-1.3159,-1.3165,-1.3178,-1.3198,-1.3208,-1.3234,-1.3239,-1.3267,-1.3267,-1.3261,-1.3262,-1.3276,-1.3275,-1.3321,-1.3327,-1.3292,-1.3292,-1.3292,0,-1.3046,-1.3062,-1.308,-1.3091,-1.31,-1.3118,-1.313,-1.3138,-1.315,-1.317,-1.3183,-1.3203,-1.322,-1.3254,-1.3266,-1.3286,-1.3287,-1.3302,-1.329,-1.3288,-1.3288,-1.3287,-1.3289,-1.3304,-1.3304,-1.3305,-1.3305,0,-1.3078,-1.3081,-1.3098,-1.3116,-1.313,-1.3145,-1.316,-1.3169,-1.3179,-1.3193,-1.3214,-1.3228,-1.3254,-1.3275,-1.3296,-1.3306,-1.3308,-1.3308,-1.3313,-1.3311,-1.3307,-1.331,-1.3267,-1.3307,-1.3307,-1.3307,-1.3307,-1.3307,-1.31,-1.3113,-1.3128,-1.3147,-1.3159,-1.3173,-1.3187,-1.3197,-1.3214,-1.3236,-1.3239,-1.3262,-1.3279,-1.3307,-1.3318,-1.3336,-1.3333,-1.3339,-1.3341,-1.3342,-1.3343,-1.3304,-1.334,-1.334,-1.334,-1.334,-1.334,0,-1.3132,-1.3141,-1.3158,-1.3178,-1.3193,-1.3192,-1.3209,-1.3222,-1.3241,-1.3256,-1.3273,-1.3297,-1.3317,-1.3331,-1.3352,-1.3364,-1.3365,-1.3369,-1.3369,-1.3371,-1.3345,-1.3339,-1.3368,-1.3368,-1.3368,-1.3368,-1.3368,-1.3368,-1.315,-1.3173,-1.3178,-1.3208,-1.3218,-1.3239,-1.3249,-1.3262,-1.3274,-1.3301,-1.3317,-1.3326,-1.3341,-1.3363,-1.3381,-1.3385,-1.3393,-1.3397,-1.3401,-1.3376,-1.3373,-1.337,-1.3365,-1.3399,-1.3399,-1.3425,-1.3426,-1.3426]},{"header":{"parameterUnit":"m.s-1","parameterCategory":1,"la1":30.2991,"la2":30.254,"lo1":-89.0895,"lo2":-89.0444,"dy":0.0017,"dx":0.0017,"nx":28,"ny":28,"refTime":"2024-03-28T21:00:00:Z","depth":0,"parameterNumber":3,"parameterNumberName":"V-component_of_WINDS"},"data":[0,0,0,0,0,0,0,0,0,0,0,0,0,0,0,0,0,0,0,0,0,0,0,0,0,0,0,0,0,0,0,0,0,0,0,0,0,0,0,0,0,0,0,0,0,0,0,0,0,0,0,0,0,0,0,0,0,0,5.3729,5.373,0,5.379,5.379,5.3791,5.3727,5.3725,5.3722,5.372,5.3778,5.3781,5.3785,0,0,0,0,0,0,0,0,0,0,0,0,0,5.3553,5.3557,5.3729,5.373,5.3731,5.379,5.379,5.3791,5.3728,5.3725,5.3722,5.3719,5.3777,5.3781,5.3786,0,0,0,0,0,0,0,0,0,0,0,0,0,5.3623,5.3558,5.3729,5.3706,5.3705,5.3789,5.379,5.3791,5.3728,5.3725,5.3721,5.3718,5.3775,5.3781,5.3786,5.3895,0,0,5.3804,5.3806,0,0,0,0,0,0,0,0,5.3619,5.363,5.3709,5.3708,5.3707,5.3747,5.3749,5.3826,5.3729,5.3719,5.372,5.3716,5.377,5.3776,5.3795,5.3898,5.39,5.3804,5.3808,5.381,5.3812,0,0,0,0,0,0,0,5.3615,5.3627,5.3753,5.371,5.3709,5.3691,5.3697,5.3764,5.3764,5.372,5.3715,5.3724,5.3769,5.379,5.3796,5.3901,5.3804,5.3809,5.3813,5.3815,5.4092,5.4096,0,0,0,0,0,0,5.3613,5.3623,5.3751,5.3755,5.3653,5.3697,5.3704,5.3738,5.3764,5.3764,5.3727,5.372,5.3782,5.379,5.3798,5.3925,5.381,5.3815,5.3819,5.4089,5.4093,5.4098,0,0,0,0,0,0,5.3609,5.3625,5.3749,5.3688,5.3702,5.3704,5.3743,5.3741,5.3762,5.3769,5.3768,5.3749,5.3779,5.379,5.3871,5.3926,5.3818,5.3823,5.4084,5.409,5.4095,5.4181,0,0,0,0,0,0,5.3605,5.3624,5.3667,5.3689,5.3706,5.3822,5.3746,5.3745,5.3773,5.3765,5.3789,5.379,5.3777,5.3863,5.3877,5.3932,5.3828,5.4079,5.4087,5.4094,5.4173,5.4189,5.4203,0,0,0,0,0,5.3599,5.3688,5.367,5.3685,5.376,5.3826,5.3835,5.382,5.3777,5.3819,5.3823,5.3789,5.3918,5.3872,5.3887,5.3945,5.4075,5.4084,5.4093,5.4167,5.4186,5.4202,0,0,0,0,0,0,5.3671,5.3691,5.367,5.377,5.3797,5.3815,5.3867,5.3842,5.388,5.3871,5.385,5.3856,5.3942,5.3951,5.3899,5.405,5.3989,5.4002,5.404,5.4059,5.4073,5.4068,5.3833,0,0,0,0,0,5.3699,5.3753,5.3767,5.3854,5.3868,5.3866,5.3894,5.388,5.3907,5.3917,5.3927,5.3953,5.3999,5.4029,5.4072,5.4175,5.4177,5.4222,5.4236,5.4249,5.4259,5.4311,5.433,5.4127,5.4127,5.4126,0,0,5.3757,5.3774,5.381,5.3869,5.3888,5.3942,5.3876,5.3936,5.3975,5.3926,5.4003,5.4011,5.4038,5.4129,5.417,5.414,5.4316,5.426,5.4269,5.4273,5.4322,5.4341,5.4358,5.4133,5.4132,5.4131,0,0,5.3889,5.3909,5.3983,5.4003,5.4033,5.4031,5.4048,5.407,5.4074,5.4151,5.4114,5.416,5.424,5.426,5.4281,5.4419,5.4388,5.4434,5.451,5.4561,5.4577,5.4591,5.4638,5.4655,5.4444,5.4445,5.4445,0,5.3957,5.4039,5.4023,5.4086,5.4112,5.4071,5.4143,5.4163,5.4205,5.4223,5.4189,5.4288,5.4304,5.4398,5.4431,5.445,5.4468,5.443,5.4576,5.459,5.4603,5.4647,5.4665,5.445,5.4449,5.4449,5.4448,0,5.4119,5.4176,5.4231,5.4273,5.4305,5.4373,5.4365,5.44,5.4383,5.4384,5.4461,5.4478,5.4522,5.4544,5.4529,5.4636,5.4616,5.458,5.4518,5.4628,5.4669,5.4686,5.4457,5.4455,5.4454,5.4453,0,0,5.4299,5.4331,5.4351,5.4369,5.4398,5.4441,5.4505,5.455,5.4578,5.4608,5.466,5.4729,5.4695,5.4718,5.4704,5.475,5.4855,5.4707,5.4708,5.4732,5.4971,5.4996,5.5016,5.4835,5.4838,5.4841,5.4967,0,5.443,5.4543,5.453,5.4637,5.4688,5.4649,5.4704,5.4727,5.4729,5.4771,5.4772,5.4821,5.4774,5.4787,5.483,5.4833,5.4902,5.4824,5.488,5.4883,5.4873,5.5038,5.5066,5.5184,5.4984,5.4986,5.4988,0,5.4598,5.4635,5.4747,5.4766,5.4787,5.4838,5.4876,5.4918,5.4942,5.494,5.4966,5.4943,5.5005,5.4944,5.5028,5.4975,5.4997,5.5002,5.5006,5.5009,5.4941,5.5043,5.5222,5.5239,5.5014,5.5012,5.501,0,5.4715,5.4792,5.4869,5.4885,5.4911,5.4946,5.4958,5.4979,5.5006,5.5039,5.5056,5.5096,5.5117,5.5148,5.5136,5.5093,5.5221,5.516,5.5219,5.5219,5.5246,5.5244,5.5429,5.5265,5.5264,5.5264,5.5264,0,5.4862,5.4931,5.4921,5.4968,5.5044,5.5027,5.5102,5.5109,5.5128,5.5174,5.5143,5.5186,5.5169,5.521,5.5201,5.5271,5.5281,5.5279,5.5276,5.5281,5.5281,5.5294,5.5284,5.5269,5.5268,5.5267,5.5266,0,5.5004,5.5001,5.5081,5.5099,5.5104,5.5159,5.5173,5.5216,5.5215,5.5273,5.5286,5.5284,5.5332,5.5323,5.5376,5.5369,5.5455,5.5443,5.5447,5.5443,5.5502,5.5496,5.57,5.5725,5.5547,5.5548,5.555,0,5.5097,5.515,5.5173,5.5202,5.5216,5.5264,5.5291,5.5276,5.5305,5.5336,5.5374,5.5419,5.5454,5.553,5.5533,5.5572,5.5558,5.5627,5.5564,5.5567,5.5556,5.5553,5.5557,5.5639,5.5641,5.5643,5.5644,0,5.5262,5.5257,5.5298,5.5338,5.5372,5.5402,5.543,5.5455,5.5442,5.5476,5.5524,5.5551,5.5604,5.5648,5.5684,5.5694,5.5666,5.5664,5.568,5.5685,5.5684,5.5683,5.5479,5.5659,5.5658,5.5657,5.5656,5.5655,5.5381,5.5425,5.5447,5.5493,5.5512,5.5538,5.5579,5.5583,5.5623,5.5666,5.5654,5.5708,5.5729,5.5775,5.5789,5.5829,5.5804,5.5827,5.5832,5.5837,5.5843,5.568,5.5836,5.5836,5.5835,5.5835,5.5835,0,5.5542,5.5554,5.5597,5.5636,5.5671,5.5644,5.5672,5.5703,5.5751,5.5773,5.5808,5.5862,5.5904,5.591,5.5949,5.598,5.5968,5.599,5.5987,5.5989,5.5865,5.5847,5.5999,5.5999,5.5999,5.5999,5.5999,5.5999,5.5629,5.5701,5.5699,5.5779,5.579,5.5844,5.5862,5.5885,5.5902,5.5964,5.5999,5.6003,5.6017,5.6057,5.6093,5.6094,5.6108,5.6135,5.6131,5.6015,5.5998,5.5982,5.5965,5.6139,5.614,5.6251,5.6252,5.6252]}]]